| time (UTC) | temp C | wind direction | speed KPH | gust KPH | rain 1hr cm | rain 24hr cm | rain mn cm | humidity % | barometer mb |
| 20260502204042 | 19 | 302 | 6.4 | 19.3 | 0.00 | 0.00 | 0.00 | 34 | 1013.5 |
| 20260502203550 | 18 | 71 | 8.0 | 19.3 | 0.00 | 0.00 | 0.00 | 32 | 1013.5 |
| 20260502203058 | 18 | 308 | 8.0 | 22.5 | 0.00 | 0.00 | 0.00 | 33 | 1013.7 |
| 20260502202538 | 18 | 91 | 4.8 | 20.9 | 0.00 | 0.00 | 0.00 | 36 | 1013.8 |
| 20260502202044 | 18 | 104 | 6.4 | 17.7 | 0.00 | 0.00 | 0.00 | 34 | 1013.9 |
| 20260502201542 | 18 | 360 | 9.7 | 29.0 | 0.00 | 0.00 | 0.00 | 32 | 1013.9 |
| 20260502201045 | 18 | 313 | 16.1 | 29.0 | 0.00 | 0.00 | 0.00 | 33 | 1014.1 |
| 20260502200550 | 18 | 325 | 9.7 | 16.1 | 0.00 | 0.00 | 0.00 | 33 | 1014.2 |
| 20260502200056 | 18 | 202 | 6.4 | 17.7 | 0.00 | 0.00 | 0.00 | 36 | 1014.3 |
| 20260502195537 | 18 | 355 | 6.4 | 16.1 | 0.00 | 0.00 | 0.00 | 35 | 1014.4 |
| 20260502195041 | 18 | 279 | 8.0 | 20.9 | 0.00 | 0.00 | 0.00 | 35 | 1014.6 |
| 20260502194522 | 18 | 277 | 4.8 | 22.5 | 0.00 | 0.00 | 0.00 | 36 | 1014.7 |
| 20260502194022 | 17 | 342 | 9.7 | 22.5 | 0.00 | 0.00 | 0.00 | 37 | 1014.8 |
| 20260502193524 | 17 | 194 | 4.8 | 17.7 | 0.00 | 0.00 | 0.00 | 39 | 1014.8 |
| 20260502193025 | 17 | 236 | 8.0 | 17.7 | 0.00 | 0.00 | 0.00 | 35 | 1014.9 |
| 20260502192527 | 17 | 313 | 6.4 | 17.7 | 0.00 | 0.00 | 0.00 | 34 | 1015.0 |
| 20260502192028 | 17 | 302 | 6.4 | 24.1 | 0.00 | 0.00 | 0.00 | 35 | 1015.1 |
| 20260502191527 | 17 | 300 | 9.7 | 24.1 | 0.00 | 0.00 | 0.00 | 34 | 1015.2 |
| 20260502191027 | 17 | 285 | 8.0 | 14.5 | 0.00 | 0.00 | 0.00 | 33 | 1015.4 |
| 20260502190527 | 16 | 163 | 8.0 | 14.5 | 0.00 | 0.00 | 0.00 | 36 | 1015.4 |
| 20260502190026 | 16 | 323 | 4.8 | 14.5 | 0.00 | 0.00 | 0.00 | 36 | 1015.6 |
| 20260502185523 | 16 | 150 | 4.8 | 17.7 | 0.00 | 0.00 | 0.00 | 35 | 1015.6 |
| 20260502185023 | 16 | 310 | 9.7 | 17.7 | 0.00 | 0.00 | 0.00 | 34 | 1015.8 |
| 20260502184523 | 16 | 217 | 4.8 | 19.3 | 0.00 | 0.00 | 0.00 | 34 | 1015.9 |
| 20260502184025 | 16 | 286 | 6.4 | 19.3 | 0.00 | 0.00 | 0.00 | 34 | 1016.0 |
| 20260502183525 | 16 | 291 | 6.4 | 17.7 | 0.00 | 0.00 | 0.00 | 36 | 1016.1 |
| 20260502182526 | 16 | 250 | 8.0 | 20.9 | 0.00 | 0.00 | 0.00 | 35 | 1016.4 |
| 20260502182029 | 16 | 339 | 4.8 | 14.5 | 0.00 | 0.00 | 0.00 | 36 | 1016.4 |
| 20260502181529 | 16 | 162 | 8.0 | 16.1 | 0.00 | 0.00 | 0.00 | 35 | 1016.5 |
| 20260502181032 | 16 | 172 | 9.7 | 19.3 | 0.00 | 0.00 | 0.00 | 35 | 1016.6 |
| 20260502180515 | 16 | 23 | 6.4 | 17.7 | 0.00 | 0.00 | 0.00 | 36 | 1016.7 |
| 20260502164023 | 13 | 249 | 3.2 | 12.9 | 0.00 | 0.00 | 0.00 | 38 | 1017.9 |
| 20260502163525 | 13 | 244 | 4.8 | 14.5 | 0.00 | 0.00 | 0.00 | 41 | 1018.0 |
| 20260502163026 | 13 | 321 | 8.0 | 14.5 | 0.00 | 0.00 | 0.00 | 38 | 1018.1 |
| 20260502162528 | 13 | 300 | 4.8 | 14.5 | 0.00 | 0.00 | 0.00 | 42 | 1018.2 |
| 20260502162028 | 13 | 131 | 6.4 | 19.3 | 0.00 | 0.00 | 0.00 | 40 | 1018.3 |
| 20260502161528 | 13 | 287 | 9.7 | 17.7 | 0.00 | 0.00 | 0.00 | 40 | 1018.3 |
| 20260502161028 | 13 | 312 | 6.4 | 17.7 | 0.00 | 0.00 | 0.00 | 39 | 1018.4 |
| 20260502160528 | 13 | 348 | 4.8 | 12.9 | 0.00 | 0.00 | 0.00 | 38 | 1018.5 |
| 20260502152018 | 12 | 285 | 8.0 | 19.3 | 0.00 | 0.00 | 0.00 | 44 | 1018.9 |
| 20260502151519 | 12 | 323 | 8.0 | 19.3 | 0.00 | 0.00 | 0.00 | 43 | 1019.0 |
| 20260502151019 | 12 | 271 | 8.0 | 17.7 | 0.00 | 0.00 | 0.00 | 44 | 1019.0 |
| 20260502150520 | 11 | 344 | 8.0 | 17.7 | 0.00 | 0.00 | 0.00 | 43 | 1019.1 |
| 20260502130532 | 7 | 313 | 6.4 | 14.5 | 0.00 | 0.00 | 0.00 | 59 | 1019.5 |
| 20260502123548 | 5 | 229 | 0.0 | 3.2 | 0.00 | 0.00 | 0.00 | 68 | 1019.6 |
| 20260502123042 | 4 | 229 | 0.0 | 3.2 | 0.00 | 0.00 | 0.00 | 69 | 1019.6 |
| 20260502122548 | 4 | 255 | 0.0 | 1.6 | 0.00 | 0.00 | 0.00 | 71 | 1019.5 |
| 20260502122054 | 3 | 256 | 0.0 | 1.6 | 0.00 | 0.00 | 0.00 | 72 | 1019.4 |
| 20260502121534 | 3 | 256 | 0.0 | 1.6 | 0.00 | 0.00 | 0.00 | 73 | 1019.4 |
| 20260502121059 | 2 | 256 | 0.0 | 1.6 | 0.00 | 0.00 | 0.00 | 74 | 1019.4 |
| 20260502120539 | 2 | 256 | 0.0 | 1.6 | 0.00 | 0.00 | 0.00 | 76 | 1019.4 |
| 20260502115549 | 1 | 262 | 0.0 | 1.6 | 0.00 | 0.00 | 0.00 | 76 | 1019.4 |
| 20260502115054 | 1 | 262 | 0.0 | 1.6 | 0.00 | 0.00 | 0.00 | 76 | 1019.4 |
| 20260502114600 | 1 | 214 | 0.0 | 1.6 | 0.00 | 0.00 | 0.00 | 76 | 1019.3 |
| 20260502114038 | 1 | 214 | 0.0 | 1.6 | 0.00 | 0.00 | 0.00 | 76 | 1019.3 |
| 20260502113545 | 1 | 214 | 0.0 | 1.6 | 0.00 | 0.00 | 0.00 | 75 | 1019.3 |
| 20260502113050 | 1 | 214 | 0.0 | 1.6 | 0.00 | 0.00 | 0.00 | 74 | 1019.3 |
| 20260502112555 | 1 | 214 | 0.0 | 1.6 | 0.00 | 0.00 | 0.00 | 74 | 1019.2 |
| 20260502112034 | 1 | 214 | 0.0 | 0.0 | 0.00 | 0.00 | 0.00 | 74 | 1019.2 |
| 20260502111541 | 1 | 214 | 0.0 | 0.0 | 0.00 | 0.00 | 0.00 | 73 | 1019.2 |
| 20260502111036 | 1 | 214 | 0.0 | 0.0 | 0.00 | 0.00 | 0.00 | 73 | 1019.1 |
| 20260502110542 | 1 | 214 | 0.0 | 0.0 | 0.00 | 0.00 | 0.00 | 73 | 1019.2 |
| 20260502110048 | 1 | 214 | 0.0 | 0.0 | 0.00 | 0.00 | 0.00 | 72 | 1019.2 |
| 20260502105556 | 1 | 214 | 0.0 | 0.0 | 0.00 | 0.00 | 0.00 | 72 | 1019.2 |
| 20260502105037 | 1 | 214 | 0.0 | 0.0 | 0.00 | 0.00 | 0.00 | 72 | 1019.3 |
| 20260502104518 | 1 | 214 | 0.0 | 0.0 | 0.00 | 0.00 | 0.00 | 72 | 1019.2 |
| 20260502104020 | 1 | 214 | 0.0 | 0.0 | 0.00 | 0.00 | 0.00 | 71 | 1019.2 |
| 20260502103521 | 1 | 214 | 0.0 | 0.0 | 0.00 | 0.00 | 0.00 | 71 | 1019.2 |
| 20260502103024 | 1 | 214 | 0.0 | 0.0 | 0.00 | 0.00 | 0.00 | 71 | 1019.2 |
| 20260502102525 | 1 | 214 | 0.0 | 0.0 | 0.00 | 0.00 | 0.00 | 71 | 1019.2 |
| 20260502102026 | 1 | 214 | 0.0 | 0.0 | 0.00 | 0.00 | 0.00 | 70 | 1019.2 |
| 20260502101528 | 2 | 214 | 0.0 | 0.0 | 0.00 | 0.00 | 0.00 | 69 | 1019.2 |
| 20260502101024 | 2 | 214 | 0.0 | 0.0 | 0.00 | 0.00 | 0.00 | 69 | 1019.1 |
| 20260502100524 | 2 | 214 | 0.0 | 0.0 | 0.00 | 0.00 | 0.00 | 67 | 1019.1 |
| 20260502091518 | 3 | 214 | 0.0 | 0.0 | 0.00 | 0.00 | 0.00 | 63 | 1019.1 |
| 20260502091024 | 3 | 214 | 0.0 | 0.0 | 0.00 | 0.00 | 0.00 | 62 | 1019.1 |
| 20260502090524 | 3 | 214 | 0.0 | 0.0 | 0.00 | 0.00 | 0.00 | 62 | 1019.0 |
| 20260502071530 | 4 | 283 | 0.0 | 3.2 | 0.00 | 0.00 | 0.00 | 59 | 1019.2 |
| 20260502071029 | 4 | 283 | 0.0 | 3.2 | 0.00 | 0.00 | 0.00 | 59 | 1019.3 |
| 20260502070530 | 4 | 278 | 0.0 | 3.2 | 0.00 | 0.00 | 0.00 | 60 | 1019.4 |
| 20260502070032 | 4 | 280 | 0.0 | 3.2 | 0.00 | 0.00 | 0.00 | 59 | 1019.4 |
| 20260502065534 | 4 | 269 | 0.0 | 3.2 | 0.00 | 0.00 | 0.00 | 59 | 1019.5 |
| 20260502065036 | 4 | 277 | 0.0 | 3.2 | 0.00 | 0.00 | 0.00 | 59 | 1019.5 |
| 20260502064537 | 4 | 277 | 0.0 | 3.2 | 0.00 | 0.00 | 0.00 | 59 | 1019.5 |
| 20260502064058 | 3 | 277 | 0.0 | 3.2 | 0.00 | 0.00 | 0.00 | 59 | 1019.5 |
| 20260502063537 | 3 | 277 | 0.0 | 3.2 | 0.00 | 0.00 | 0.00 | 59 | 1019.5 |
| 20260502063043 | 4 | 277 | 0.0 | 3.2 | 0.00 | 0.00 | 0.00 | 59 | 1019.5 |
| 20260502062550 | 4 | 277 | 0.0 | 3.2 | 0.00 | 0.00 | 0.00 | 58 | 1019.5 |
| 20260502062053 | 4 | 283 | 0.0 | 3.2 | 0.00 | 0.00 | 0.00 | 58 | 1019.5 |
| 20260502061556 | 4 | 283 | 0.0 | 1.6 | 0.00 | 0.00 | 0.00 | 58 | 1019.5 |
| 20260502061038 | 4 | 283 | 0.0 | 0.0 | 0.00 | 0.00 | 0.00 | 58 | 1019.4 |
| 20260502060600 | 4 | 283 | 0.0 | 1.6 | 0.00 | 0.00 | 0.00 | 58 | 1019.5 |
| 20260502060058 | 4 | 283 | 0.0 | 1.6 | 0.00 | 0.00 | 0.00 | 59 | 1019.5 |
| 20260502055538 | 3 | 282 | 0.0 | 3.2 | 0.00 | 0.00 | 0.00 | 59 | 1019.5 |
| 20260502055038 | 3 | 282 | 0.0 | 3.2 | 0.00 | 0.00 | 0.00 | 59 | 1019.5 |
| 20260502054547 | 3 | 282 | 0.0 | 4.8 | 0.00 | 0.00 | 0.00 | 60 | 1019.5 |
| 20260502054028 | 3 | 282 | 0.0 | 3.2 | 0.00 | 0.00 | 0.00 | 60 | 1019.5 |
| 20260502053512 | 3 | 284 | 0.0 | 3.2 | 0.00 | 0.00 | 0.00 | 61 | 1019.6 |
| 20260502053016 | 3 | 288 | 1.6 | 3.2 | 0.00 | 0.00 | 0.00 | 61 | 1019.5 |
| 20260502052517 | 3 | 311 | 0.0 | 3.2 | 0.00 | 0.00 | 0.00 | 61 | 1019.6 |
| 20260502052017 | 3 | 311 | 0.0 | 0.0 | 0.00 | 0.00 | 0.00 | 62 | 1019.6 |
| 20260502051519 | 3 | 311 | 0.0 | 0.0 | 0.00 | 0.00 | 0.00 | 62 | 1019.5 |
| 20260502051020 | 3 | 311 | 0.0 | 0.0 | 0.00 | 0.00 | 0.00 | 63 | 1019.6 |
| 20260502050522 | 3 | 311 | 0.0 | 0.0 | 0.00 | 0.00 | 0.00 | 65 | 1019.5 |
| 20260502050043 | 3 | 311 | 0.0 | 0.0 | 0.00 | 0.00 | 0.00 | 65 | 1019.5 |
| 20260502045513 | 3 | 311 | 0.0 | 0.0 | 0.00 | 0.00 | 0.00 | 63 | 1019.5 |
| 20260502045014 | 3 | 311 | 0.0 | 0.0 | 0.00 | 0.00 | 0.00 | 61 | 1019.4 |
| 20260502044517 | 3 | 311 | 0.0 | 0.0 | 0.00 | 0.00 | 0.00 | 61 | 1019.4 |
| 20260502044019 | 3 | 311 | 0.0 | 0.0 | 0.00 | 0.00 | 0.00 | 61 | 1019.4 |
| 20260502043521 | 3 | 311 | 0.0 | 1.6 | 0.00 | 0.00 | 0.00 | 61 | 1019.4 |
| 20260502043026 | 3 | 311 | 0.0 | 1.6 | 0.00 | 0.00 | 0.00 | 62 | 1019.5 |
| 20260502042526 | 3 | 311 | 0.0 | 0.0 | 0.00 | 0.00 | 0.00 | 64 | 1019.4 |
| 20260502042026 | 3 | 311 | 0.0 | 1.6 | 0.00 | 0.00 | 0.00 | 63 | 1019.4 |
| 20260502041528 | 3 | 311 | 0.0 | 1.6 | 0.00 | 0.00 | 0.00 | 65 | 1019.4 |
| 20260502041028 | 3 | 311 | 0.0 | 1.6 | 0.00 | 0.00 | 0.00 | 64 | 1019.5 |
| 20260502040528 | 3 | 311 | 0.0 | 1.6 | 0.00 | 0.00 | 0.00 | 66 | 1019.4 |
| 20260502040028 | 4 | 311 | 0.0 | 1.6 | 0.00 | 0.00 | 0.00 | 66 | 1019.5 |
| 20260502035529 | 4 | 311 | 0.0 | 1.6 | 0.00 | 0.00 | 0.00 | 65 | 1019.5 |
| 20260502035031 | 4 | 311 | 0.0 | 0.0 | 0.00 | 0.00 | 0.00 | 64 | 1019.5 |
| 20260502034513 | 4 | 311 | 0.0 | 0.0 | 0.00 | 0.00 | 0.00 | 63 | 1019.5 |
| 20260502034015 | 4 | 311 | 0.0 | 0.0 | 0.00 | 0.00 | 0.00 | 65 | 1019.5 |
| 20260502033518 | 5 | 311 | 0.0 | 0.0 | 0.00 | 0.00 | 0.00 | 63 | 1019.6 |
| 20260502033020 | 5 | 311 | 0.0 | 0.0 | 0.00 | 0.00 | 0.00 | 62 | 1019.6 |
| 20260502032522 | 5 | 311 | 0.0 | 0.0 | 0.00 | 0.00 | 0.00 | 59 | 1019.6 |
| 20260502032025 | 5 | 311 | 0.0 | 0.0 | 0.00 | 0.00 | 0.00 | 57 | 1019.6 |
| 20260502031527 | 5 | 311 | 0.0 | 0.0 | 0.00 | 0.00 | 0.00 | 58 | 1019.6 |
| 20260502031027 | 5 | 311 | 0.0 | 0.0 | 0.00 | 0.00 | 0.00 | 59 | 1019.6 |
| 20260502030527 | 6 | 311 | 0.0 | 0.0 | 0.00 | 0.00 | 0.00 | 59 | 1019.6 |
| 20260502030028 | 6 | 311 | 0.0 | 0.0 | 0.00 | 0.00 | 0.00 | 55 | 1019.6 |
| 20260502025528 | 6 | 311 | 0.0 | 0.0 | 0.00 | 0.00 | 0.00 | 56 | 1019.5 |
| 20260502025031 | 6 | 311 | 0.0 | 0.0 | 0.00 | 0.00 | 0.00 | 55 | 1019.5 |
| 20260502024557 | 6 | 311 | 0.0 | 0.0 | 0.00 | 0.00 | 0.00 | 54 | 1019.5 |
| 20260502024058 | 6 | 311 | 0.0 | 0.0 | 0.00 | 0.00 | 0.00 | 53 | 1019.5 |
| 20260502023538 | 6 | 311 | 0.0 | 0.0 | 0.00 | 0.00 | 0.00 | 48 | 1019.6 |
| 20260502023046 | 7 | 311 | 0.0 | 0.0 | 0.00 | 0.00 | 0.00 | 48 | 1019.5 |
| 20260502022556 | 7 | 311 | 0.0 | 0.0 | 0.00 | 0.00 | 0.00 | 47 | 1019.5 |
| 20260502022053 | 7 | 311 | 0.0 | 0.0 | 0.00 | 0.00 | 0.00 | 46 | 1019.5 |
| 20260502021559 | 7 | 311 | 0.0 | 0.0 | 0.00 | 0.00 | 0.00 | 44 | 1019.5 |
| 20260502021037 | 8 | 311 | 0.0 | 0.0 | 0.00 | 0.00 | 0.00 | 44 | 1019.4 |
| 20260502020545 | 8 | 311 | 0.0 | 0.0 | 0.00 | 0.00 | 0.00 | 44 | 1019.3 |
| 20260502020051 | 8 | 311 | 0.0 | 0.0 | 0.00 | 0.00 | 0.00 | 43 | 1019.3 |
| 20260502015600 | 8 | 311 | 0.0 | 0.0 | 0.00 | 0.00 | 0.00 | 42 | 1019.2 |
| 20260502015040 | 8 | 311 | 0.0 | 0.0 | 0.00 | 0.00 | 0.00 | 41 | 1019.1 |
| 20260502014521 | 9 | 311 | 0.0 | 0.0 | 0.00 | 0.00 | 0.00 | 39 | 1019.1 |
| 20260502014023 | 9 | 311 | 0.0 | 1.6 | 0.00 | 0.00 | 0.00 | 39 | 1019.1 |
| 20260502013526 | 10 | 311 | 0.0 | 3.2 | 0.00 | 0.00 | 0.00 | 39 | 1019.0 |
| 20260502013028 | 10 | 311 | 0.0 | 4.8 | 0.00 | 0.00 | 0.00 | 38 | 1019.0 |
| 20260502012530 | 10 | 315 | 1.6 | 6.4 | 0.00 | 0.00 | 0.00 | 38 | 1019.0 |
| 20260502012030 | 10 | 315 | 3.2 | 6.4 | 0.00 | 0.00 | 0.00 | 38 | 1019.0 |
| 20260502011527 | 10 | 317 | 1.6 | 4.8 | 0.00 | 0.00 | 0.00 | 37 | 1018.9 |
| 20260502011029 | 10 | 331 | 1.6 | 4.8 | 0.00 | 0.00 | 0.00 | 37 | 1018.9 |
| 20260502010530 | 10 | 302 | 3.2 | 11.3 | 0.00 | 0.00 | 0.00 | 38 | 1019.0 |
| 20260502010030 | 10 | 288 | 4.8 | 11.3 | 0.00 | 0.00 | 0.00 | 37 | 1018.9 |
| 20260502005531 | 10 | 298 | 4.8 | 9.7 | 0.00 | 0.00 | 0.00 | 37 | 1018.9 |
| 20260502005033 | 10 | 14 | 3.2 | 12.9 | 0.00 | 0.00 | 0.00 | 37 | 1018.9 |
| 20260502004534 | 10 | 298 | 4.8 | 12.9 | 0.00 | 0.00 | 0.00 | 37 | 1018.9 |
| 20260502004042 | 10 | 40 | 4.8 | 6.4 | 0.00 | 0.00 | 0.00 | 35 | 1018.8 |
| 20260502003540 | 10 | 318 | 3.2 | 4.8 | 0.00 | 0.00 | 0.00 | 35 | 1018.9 |
| 20260502003048 | 10 | 294 | 3.2 | 6.4 | 0.00 | 0.00 | 0.00 | 34 | 1018.9 |
| 20260502002555 | 10 | 314 | 3.2 | 8.0 | 0.00 | 0.00 | 0.00 | 35 | 1018.9 |
| 20260502002056 | 10 | 306 | 3.2 | 9.7 | 0.00 | 0.00 | 0.00 | 36 | 1018.9 |
| 20260502001534 | 10 | 320 | 4.8 | 9.7 | 0.00 | 0.00 | 0.00 | 35 | 1018.9 |
| 20260502001100 | 10 | 298 | 3.2 | 11.3 | 0.00 | 0.00 | 0.00 | 35 | 1018.9 |
| 20260502000540 | 10 | 304 | 6.4 | 12.9 | 0.00 | 0.00 | 0.00 | 37 | 1018.9 |
| 20260502000047 | 10 | 327 | 6.4 | 12.9 | 0.00 | 0.00 | 0.00 | 36 | 1018.9 |
| 20260501235552 | 11 | 346 | 3.2 | 12.9 | 0.00 | 0.00 | 0.00 | 36 | 1018.8 |
| 20260501235100 | 11 | 326 | 6.4 | 12.9 | 0.00 | 0.00 | 0.00 | 36 | 1018.9 |
| 20260501234539 | 11 | 313 | 6.4 | 16.1 | 0.00 | 0.00 | 0.00 | 34 | 1018.9 |
| 20260501234018 | 11 | 345 | 6.4 | 16.1 | 0.00 | 0.00 | 0.00 | 34 | 1018.9 |
| 20260501233521 | 11 | 321 | 6.4 | 16.1 | 0.00 | 0.00 | 0.00 | 35 | 1018.9 |
| 20260501233023 | 11 | 43 | 3.2 | 12.9 | 0.00 | 0.00 | 0.00 | 36 | 1018.9 |
| 20260501232525 | 11 | 336 | 3.2 | 16.1 | 0.00 | 0.00 | 0.00 | 35 | 1018.8 |
| 20260501232024 | 11 | 360 | 8.0 | 16.1 | 0.00 | 0.00 | 0.00 | 35 | 1018.9 |
| 20260501231524 | 11 | 337 | 4.8 | 9.7 | 0.00 | 0.00 | 0.00 | 34 | 1018.8 |
| 20260501231025 | 11 | 5 | 6.4 | 24.1 | 0.00 | 0.00 | 0.00 | 34 | 1018.8 |
| 20260501230526 | 11 | 296 | 9.7 | 16.1 | 0.00 | 0.00 | 0.00 | 34 | 1018.9 |
| 20260501230027 | 11 | 321 | 4.8 | 9.7 | 0.00 | 0.00 | 0.00 | 37 | 1018.9 |
| 20260501225521 | 11 | 313 | 4.8 | 12.9 | 0.00 | 0.00 | 0.00 | 34 | 1018.8 |
| 20260501225025 | 11 | 329 | 6.4 | 14.5 | 0.00 | 0.00 | 0.00 | 36 | 1018.9 |
| 20260501224522 | 11 | 344 | 9.7 | 14.5 | 0.00 | 0.00 | 0.00 | 35 | 1018.9 |
| 20260501224025 | 11 | 15 | 4.8 | 9.7 | 0.00 | 0.00 | 0.00 | 35 | 1018.9 |
| 20260501223530 | 11 | 321 | 4.8 | 14.5 | 0.00 | 0.00 | 0.00 | 37 | 1018.9 |
| 20260501223032 | 11 | 351 | 8.0 | 14.5 | 0.00 | 0.00 | 0.00 | 35 | 1018.9 |
| 20260501222512 | 11 | 296 | 6.4 | 14.5 | 0.00 | 0.00 | 0.00 | 38 | 1018.9 |
| 20260501222013 | 11 | 311 | 3.2 | 14.5 | 0.00 | 0.00 | 0.00 | 35 | 1019.0 |
| 20260501221513 | 11 | 301 | 6.4 | 16.1 | 0.00 | 0.00 | 0.00 | 35 | 1019.0 |
| 20260501221017 | 11 | 344 | 6.4 | 19.3 | 0.00 | 0.00 | 0.00 | 35 | 1019.0 |
| 20260501220513 | 11 | 322 | 9.7 | 22.5 | 0.00 | 0.00 | 0.00 | 36 | 1019.0 |
| 20260501220013 | 11 | 327 | 9.7 | 22.5 | 0.00 | 0.00 | 0.00 | 36 | 1019.0 |
| 20260501215514 | 11 | 323 | 9.7 | 17.7 | 0.00 | 0.00 | 0.00 | 33 | 1018.9 |
| 20260501215016 | 12 | 15 | 9.7 | 17.7 | 0.00 | 0.00 | 0.00 | 35 | 1018.9 |
| 20260501214517 | 11 | 55 | 4.8 | 20.9 | 0.00 | 0.00 | 0.00 | 37 | 1018.8 |
| 20260501214044 | 11 | 306 | 8.0 | 20.9 | 0.00 | 0.00 | 0.00 | 34 | 1018.8 |
| 20260501213550 | 11 | 335 | 4.8 | 12.9 | 0.00 | 0.00 | 0.00 | 36 | 1018.9 |
| 20260501213056 | 11 | 304 | 6.4 | 14.5 | 0.00 | 0.00 | 0.00 | 38 | 1018.9 |
| 20260501212534 | 11 | 315 | 4.8 | 12.9 | 0.00 | 0.00 | 0.00 | 37 | 1018.9 |
| 20260501212100 | 11 | 360 | 8.0 | 12.9 | 0.00 | 0.00 | 0.00 | 37 | 1019.0 |
| 20260501211541 | 11 | 360 | 6.4 | 17.7 | 0.00 | 0.00 | 0.00 | 41 | 1019.0 |
| 20260501211037 | 10 | 329 | 4.8 | 19.3 | 0.00 | 0.00 | 0.00 | 38 | 1019.0 |
| 20260501210545 | 11 | 34 | 3.2 | 19.3 | 0.00 | 0.00 | 0.00 | 35 | 1019.0 |
| 20260501210053 | 11 | 302 | 8.0 | 12.9 | 0.00 | 0.00 | 0.00 | 38 | 1019.1 |
| 20260501205534 | 11 | 337 | 4.8 | 16.1 | 0.00 | 0.00 | 0.00 | 36 | 1019.1 |
| 20260501205041 | 11 | 331 | 6.4 | 16.1 | 0.00 | 0.00 | 0.00 | 38 | 1019.2 |
| 20260501204521 | 11 | 294 | 4.8 | 12.9 | 0.00 | 0.00 | 0.00 | 38 | 1019.2 |